Tracking 23611 objects as of 18-Sep-2021
HD Live streaming from Space Station
objects crossing your sky now
Track INSPIRATION-4

STARLINK-1109

Track STARLINK-1109 now!
10-day predictions
STARLINK-1109 is classified as:


NORAD ID: 44945
Int'l Code: 2020-001AH
Perigee: 553.0 km
Apogee: 555.8 km
Inclination: 53.1 °
Period: 95.6 minutes
Semi major axis: 6925 km
RCS: Unknown
Launch date: January 7, 2020
Source: United States (US)
Launch site: AIR FORCE EASTERN TEST RANGE (AFETR)
aabbcc
Your satellite tracking list
Your tracking list is empty




NASA's NSSDC Master Catalog

Two Line Element Set (TLE):
1 44945U 20001AH  21261.05058854  .00000674  00000-0  64184-4 0  9990
2 44945  53.0535 100.3149 0002024  82.5526 277.5693 15.06391222 93892
Source of the keplerian elements: AFSPC